SCP
0 0 0 0 0 0 0 0 0 0 0 0 0 0 0 0 0 0 0 -0 -0 -1 -0 -0 -1 -1 -1 -1 -1 -2 -1 -1 -1 -1 -1 -0 -0 -0 -0 0 -0 -0 -0 -0 -0 -0 0 0 0
0 0 0 0 0 -0 -0 0 0 0 0 0 0 0 0 0 0 0 0 0 -0 -1 -1 -0 -0 -1 -1 -1 -1 -1 -1 -1 -1 -1 -1 -0 -0 -0 0 0 -0 -0 -0 -0 -0 -0 0 0 0
0 0 0 0 0 -0 -0 -0 0 0 0 0 0 0 0 0 0 0 0 -0 -0 -0 -0 -0 -0 -0 -0 -1 -1 -1 -1 -1 -1 -1 -0 -0 -0 0 0 0 0 -0 -0 -0 -0 -0 -0 -0 -0
0 0 0 0 0 0 0 0 0 0 0 0 0 0 0 0 0 0 0 0 0 -0 -0 -0 -0 -0 -0 -0 -1 -1 -1 -1 -1 -0 -0 -0 -0 0 0 0 0 -0 -0 -0 -0 -0 -0 -0 -0
0 0 0 0 0 0 0 0 0 0 0 0 0 0 0 1 1 0 0 0 0 0 0 -0 -0 -0 -0 -0 -0 -0 -1 -0 -0 -0 -0 -0 -0 0 0 0 0 -0 -0 -0 -0 -0 0 0 0
0 0 0 0 0 0 0 0 0 0 0 0 0 0 0 1 0 0 0 0 0 0 0 0 0 -0 -0 -0 -0 -0 -0 -0 -0 -0 -0 -0 -0 0 0 0 0 0 -0 -0 -0 -0 0 0 0
0 0 0 0 0 0 0 0 0 0 0 0 0 0 0 1 1 0 1 1 0 0 0 0 0 0 0 -0 -0 -0 -0 -0 -0 -0 0 0 0 0 0 0 0 -0 0 0 0 -0 -0 -0 -0
0 0 0 0 0 0 0 0 0 0 0 0 0 0 0 1 1 1 1 1 1 0 0 0 0 0 0 0 -0 -0 0 0 -0 -0 -0 -0 -0 -0 -0 -0 -0 -0 -0 -0 -0 -0 -0 -0 -0
0 0 0 0 0 0 0 0 0 0 0 0 0 0 0 0 1 1 1 1 1 1 0 0 0 0 0 0 0 0 0 0 0 0 0 0 0 -0 -0 -0 0 0 -0 -0 -0 -0 -0 -0 -0
0 0 0 0 0 0 0 0 0 0 0 0 0 1 0 1 1 1 1 1 1 1 0 0 0 0 0 0 0 0 0 0 0 0 0 0 0 0 0 0 0 0 0 0 0 0 0 0 0
0 0 0 0 0 0 0 0 0 0 0 0 0 0 1 2 1 1 0 0 0 1 1 0 1 0 0 0 0 0 0 0 0 0 0 0 0 0 0 0 0 0 0 0 0 0 0 0 0
0 0 0 0 0 0 0 0 0 0 0 0 0 0 0 0 2 1 1 0 0 1 1 0 0 1 1 1 0 0 0 0 0 0 0 0 0 0 0 0 0 0 0 0 0 0 0 0 0
0 0 0 0 0 0 0 0 0 0 0 0 0 0 0 0 0 1 0 1 1 1 1 1 1 1 1 1 1 1 1 0 0 0 0 0 0 0 0 0 0 0 0 0 0 0 0 0 0
0 0 0 0 -0 0 0 0 0 0 0 0 -0 0 0 0 0 1 1 1 0 0 0 1 1 1 1 1 1 1 1 1 1 1 0 0 0 0 0 0 0 0 0 0 0 0 0 0 0
0 0 0 -0 -0 0 0 0 0 0 0 0 0 0 0 0 0 1 0 1 1 0 0 1 0 1 1 1 1 1 1 1 1 1 1 1 1 0 0 0 0 0 0 0 0 0 0 0 0
0 0 0 0 -0 0 0 0 0 0 0 0 0 0 0 0 0 -0 -0 1 1 2 1 1 1 1 1 1 1 1 1 1 1 1 1 1 1 0 0 1 1 1 0 0 0 0 0 0 0
0 0 0 0 -0 0 0 -0 -0 -0 0 0 0 0 0 0 0 -0 0 1 1 1 2 1 1 2 2 3 3 2 1 1 1 1 1 0 0 1 1 1 1 1 1 1 1 1 0 0 0
0 0 0 0 0 0 0 -0 -0 -0 0 0 0 0 0 0 0 0 0 1 1 2 1 1 1 4 5 4 3 2 1 1 1 1 1 1 1 1 1 1 1 1 0 0 1 1 1 0 0
0 -0 0 0 -0 0 -0 0 -0 0 -0 0 0 0 0 0 0 0 -0 0 1 1 1 3 3 3 3 3 3 1 1 2 1 1 1 1 1 0 1 1 1 1 1 1 1 1 1 1 1
0 0 0 0 0 0 0 0 0 0 0 0 0 0 0 0 0 -0 0 0 0 0 1 1 2 3 3 3 2 2 2 1 1 1 1 1 0 1 1 1 1 1 1 1 1 1 1 1 1
0 -0 -0 0 0 0 0 0 0 0 0 0 0 0 0 0 0 0 0 0 0 0 0 1 2 4 3 1 3 3 2 2 1 1 1 1 0 0 1 1 1 1 1 1 1 1 0 1 1
0 0 -0 -0 -0 0 0 0 0 0 0 0 0 0 0 0 -0 0 0 0 0 0 0 0 1 2 2 2 2 3 3 2 2 2 2 2 2 2 1 1 1 1 1 1 0 1 1 1 1
0 0 0 0 -0 -0 0 0 0 0 0 0 0 0 0 0 0 0 0 0 0 0 0 1 1 1 2 3 3 3 3 4 3 3 2 1 1 1 1 1 1 1 0 0 1 1 1 1 1
0 0 0 0 0 0 0 0 0 0 0 0 0 0 0 0 0 0 0 0 0 0 0 1 1 1 1 2 3 4 2 1 1 1 1 1 1 1 0 0 0 0 0 0 0 0 0 1 1
0 0 0 0 0 0 0 0 0 0 0 0 0 0 0 0 0 0 0 0 0 0 0 1 2 2 2 2 3 2 1 1 0 0 0 0 0 0 0 0 0 0 0 0 0 0 0 0 0
0 0 0 0 0 0 0 0 0 0 0 0 0 0 0 0 0 0 0 0 0 0 1 1 1 1 2 2 1 0 0 0 1 0 0 0 0 0 0 0 0 0 0 0 0 0 0 0 0
0 0 0 0 0 0 0 0 0 0 0 0 0 0 0 0 0 0 0 0 0 0 1 1 1 1 0 0 0 1 0 0 0 0 0 0 0 0 0 0 0 0 0 0 0 0 0 0 0
0 0 0 0 0 0 0 0 0 0 0 0 0 0 0 0 0 0 0 0 0 0 0 1 0 0 0 0 0 0 0 0 0 0 0 0 0 0 0 0 0 0 0 0 0 0 0 0 0
0 0 0 0 0 0 0 0 0 0 0 0 0 0 0 0 0 0 0 0 0 0 0 0 0 0 0 0 0 0 0 0 0 0 0 0 0 0 0 0 0 0 0 0 0 0 0 0 0
0 0 0 0 0 0 0 0 0 0 0 0 0 0 0 0 0 0 0 0 0 0 0 0 0 0 0 0 0 0 0 0 0 0 0 0 0 0 0 0 0 0 0 0 0 0 0 0 0
Wind_Speed_500mb
28 23 15 10 7 5 8 5 5 8 4 1 21 15 25 23 13 14 17 42 48 62 67 64 61 58 54 50 48 50 50 49 45 40 33 28 26 33 39 39 37 31 26 22 21 21 19 17 16
22 19 7 2 9 16 12 7 11 11 16 27 22 15 9 4 11 18 7 41 58 61 65 65 62 59 55 51 49 49 50 46 43 39 33 29 30 37 39 37 33 28 24 20 19 18 17 14 14
16 17 8 6 9 25 10 13 10 6 23 16 13 17 11 5 10 9 14 46 66 62 61 64 61 58 54 51 51 50 48 45 42 38 34 31 35 40 38 34 30 25 22 19 18 17 15 13 13
15 12 4 13 28 17 17 10 3 19 12 6 10 23 6 10 10 10 24 49 66 64 60 60 58 56 54 52 50 48 47 44 41 38 34 35 39 41 37 33 28 23 20 18 16 15 14 13 12
23 7 11 14 35 23 20 24 12 15 23 23 33 13 17 14 11 14 34 54 69 67 65 61 57 53 52 51 50 48 45 42 40 36 38 41 42 40 36 31 26 22 19 16 15 14 13 11 10
10 4 11 32 41 23 21 34 30 27 30 33 24 23 9 10 10 19 40 51 62 61 64 62 57 52 49 48 49 48 46 42 39 39 41 43 42 38 34 29 25 22 19 17 15 14 12 10 9
11 8 20 26 33 26 28 29 34 25 28 27 23 21 6 12 16 28 47 50 64 63 63 63 58 53 48 44 47 48 45 42 40 43 42 41 39 36 33 29 26 23 21 18 17 15 14 13 12
10 6 11 16 28 38 15 13 14 21 27 17 13 11 13 17 23 35 48 51 66 65 64 64 61 58 53 48 46 47 44 41 42 43 41 39 37 36 34 31 29 26 23 20 18 17 16 15 15
14 11 21 21 22 17 8 18 21 13 17 13 7 24 23 16 29 37 51 54 67 66 67 67 65 63 58 51 47 44 43 41 42 42 41 39 41 40 37 35 31 28 25 22 19 18 18 18 18
15 11 15 8 13 22 19 22 31 21 26 26 24 20 11 18 33 45 52 64 72 70 71 70 68 65 59 55 52 50 47 47 47 46 46 46 44 42 40 37 34 31 27 25 23 22 22 22 21
11 14 11 13 20 22 31 30 27 30 40 47 32 12 8 18 29 44 52 59 69 69 71 73 71 67 64 62 59 56 54 52 50 50 48 48 46 44 42 39 36 34 31 29 27 26 27 27 26
10 18 31 19 33 29 27 34 42 54 58 39 40 39 31 32 39 50 56 62 65 71 73 73 73 70 67 66 64 60 59 55 52 50 48 48 46 44 41 39 38 37 35 33 31 31 30 29 31
17 19 22 38 35 44 48 57 61 70 51 55 54 54 56 52 52 60 50 53 58 64 70 72 73 72 70 67 64 61 60 58 56 54 52 50 47 44 42 41 40 39 38 36 35 34 33 35 35
12 17 28 25 47 46 41 53 61 24 31 51 45 50 53 49 55 59 58 61 58 58 65 69 70 68 66 67 66 63 61 60 58 55 53 51 48 46 43 41 40 40 38 38 38 38 38 40 41
10 14 25 33 45 23 36 44 57 59 47 58 54 53 52 54 49 61 75 70 57 54 60 60 64 65 67 67 66 63 63 60 58 55 54 52 51 48 45 42 40 40 40 40 41 41 43 43 43
4 1 11 14 20 23 27 34 37 49 52 54 51 45 43 53 54 61 67 71 65 66 53 52 58 58 59 62 65 66 63 60 55 53 51 49 49 50 49 45 42 42 41 43 42 42 45 47 46
3 12 19 20 17 5 29 26 42 41 42 47 51 48 42 37 47 54 65 68 68 66 50 45 48 59 60 60 61 64 65 56 54 50 45 37 40 42 46 45 42 42 43 44 44 44 44 46 45
7 10 15 20 10 9 18 36 33 32 23 33 46 50 38 31 32 63 56 64 65 63 62 47 33 41 51 63 61 65 65 60 53 45 39 31 30 33 34 36 36 34 34 36 37 39 42 44 46
21 23 29 42 23 21 24 27 27 20 21 25 31 41 44 41 49 55 62 58 43 62 71 67 65 68 63 40 68 80 76 66 54 41 33 36 28 29 29 34 32 31 32 34 38 41 42 43 47
21 24 33 34 13 14 15 26 17 11 6 11 28 29 49 59 59 49 46 58 51 57 67 78 63 60 63 68 79 78 78 61 49 39 38 38 32 26 28 30 30 31 32 32 35 35 36 40 39
23 29 30 31 24 18 17 19 5 2 8 2 7 23 34 41 65 69 59 57 57 67 64 71 80 67 75 76 72 70 62 54 49 55 50 42 26 29 33 30 31 29 29 31 34 37 39 39 37
25 29 37 32 13 15 2 11 9 7 5 7 4 3 28 53 64 62 71 70 77 88 86 87 72 64 69 70 72 63 61 61 64 62 43 33 36 34 26 23 24 24 24 25 28 31 34 33 37
13 9 16 20 19 11 13 11 6 6 5 6 9 14 19 20 38 56 65 65 71 81 81 70 71 72 65 61 55 54 61 65 50 44 46 46 36 26 21 18 19 19 18 19 22 25 30 33 32
8 10 4 3 7 15 17 14 12 13 6 7 8 23 25 24 22 26 40 45 45 48 57 63 67 63 66 60 59 61 56 52 42 42 46 38 27 22 20 16 14 13 18 23 27 28 28 28 32
9 9 9 10 12 16 7 10 16 4 4 11 20 28 28 28 27 18 25 36 38 42 51 61 62 63 65 58 55 50 43 42 40 34 30 28 23 20 18 16 15 20 23 27 31 33 37 39 37
16 13 13 15 13 11 6 11 4 3 4 7 10 15 19 24 27 29 25 27 34 40 46 52 62 63 59 52 49 43 38 36 32 27 24 17 16 18 19 21 25 28 29 31 34 40 41 43 41
11 14 0 6 3 8 5 6 8 2 2 11 18 20 25 27 29 31 29 19 18 25 36 41 46 49 42 43 44 40 34 27 23 19 19 20 22 22 24 26 28 30 31 36 40 42 40 40 41
7 14 7 5 14 21 9 7 11 8 7 7 13 19 22 23 25 30 33 29 14 13 26 36 41 43 39 33 28 22 17 16 18 21 22 22 21 26 30 32 32 34 36 37 37 34 31 31 35
4 7 5 1 3 11 18 11 4 4 9 11 7 11 15 19 22 23 25 32 33 33 33 30 27 23 19 15 12 13 16 20 22 20 21 23 29 36 37 37 36 36 39 38 38 38 38 38 40
3 2 1 9 10 2 6 8 7 4 10 12 12 8 10 13 17 18 14 14 16 19 21 19 14 11 11 12 16 18 18 17 19 22 28 33 36 39 39 40 44 45 47 48 48 45 46 48 48
Wind_Direction_500mb
251 260 288 327 250 261 234 215 291 225 192 145 307 287 294 276 267 299 326 178 182 175 174 174 175 177 177 175 174 172 170 169 170 174 176 180 170 160 155 153 152 153 152 152 151 149 146 137 134
238 241 254 102 244 236 231 192 207 254 325 319 315 331 290 298 244 283 183 173 175 177 175 176 177 178 179 179 180 177 175 176 177 180 186 184 173 165 161 157 156 157 158 156 155 153 150 145 144
210 205 193 212 227 237 244 193 200 258 316 320 315 329 296 281 288 262 193 171 176 180 178 178 178 178 181 185 184 181 180 181 183 188 190 185 175 167 164 161 161 163 162 160 159 159 157 153 153
172 150 110 230 227 240 232 151 23 312 323 313 314 302 279 289 284 238 190 173 176 181 180 179 181 181 184 188 187 185 185 185 189 193 190 182 174 169 168 167 167 168 167 166 163 166 164 158 153
169 154 212 231 242 248 245 263 284 302 308 301 313 289 281 254 240 221 187 175 179 181 180 182 183 185 187 189 190 189 191 192 194 195 185 177 174 172 172 173 173 173 174 172 175 174 174 171 166
149 147 215 234 235 236 248 265 275 277 287 292 296 288 258 240 217 183 183 180 181 183 182 184 183 187 189 193 195 195 196 198 197 190 183 177 176 176 178 180 180 182 183 183 185 185 186 193 197
183 188 230 250 253 246 241 257 258 269 279 283 289 283 253 228 203 182 178 184 182 185 186 186 184 188 191 199 202 200 200 200 195 187 184 181 183 184 187 189 190 192 193 194 196 196 199 205 214
154 211 216 234 243 263 243 224 262 247 272 263 302 258 257 243 201 182 183 184 184 188 188 189 188 189 192 195 202 203 201 200 194 191 191 191 192 195 199 199 200 202 204 205 208 209 210 216 224
146 221 237 233 226 249 251 272 253 252 268 293 283 304 294 254 192 182 178 183 186 191 193 193 193 194 194 196 198 202 202 199 198 197 199 201 203 205 207 208 209 211 213 215 219 225 229 232 236
196 224 226 222 246 258 268 291 279 279 270 273 279 334 324 192 189 185 183 183 190 195 196 197 197 197 198 200 202 202 202 201 202 203 204 207 210 212 215 215 216 218 222 226 230 234 240 245 249
187 238 207 222 234 254 266 274 264 259 256 252 266 307 279 285 210 195 194 197 196 197 199 200 201 201 202 204 206 207 207 207 208 210 211 214 216 218 220 222 224 227 230 235 240 245 248 252 255
218 223 229 249 242 256 263 275 260 249 251 270 274 283 269 263 250 217 205 203 200 202 201 202 203 205 206 209 210 213 215 215 216 218 218 222 223 226 228 230 234 237 240 244 250 257 265 272 279
227 244 233 242 253 253 259 255 259 259 268 273 275 279 279 280 249 232 221 209 206 207 205 205 207 209 211 214 217 219 221 223 223 223 225 227 228 230 232 235 238 241 247 254 263 270 276 279 279
195 247 261 260 251 246 244 251 251 265 274 272 275 275 274 277 251 227 216 213 210 210 210 208 210 214 217 220 221 224 225 228 230 231 232 234 236 237 239 241 246 252 257 264 267 274 278 282 284
276 299 301 260 253 242 238 260 264 263 262 269 271 269 268 269 253 223 221 216 210 215 210 214 213 213 220 225 227 229 231 233 234 235 238 239 242 244 245 248 252 259 263 267 273 277 281 282 285
340 292 276 268 229 246 190 267 265 253 242 249 259 259 261 267 241 228 223 222 217 217 217 223 223 225 223 228 232 233 235 237 239 240 243 244 247 248 248 251 256 263 268 273 275 277 280 281 282
133 268 242 290 209 133 193 253 253 249 235 241 249 253 253 253 237 231 229 236 228 223 212 221 235 247 237 233 235 241 242 243 243 245 247 248 248 249 249 252 261 266 268 269 271 272 274 277 282
225 249 284 276 1 254 227 254 275 263 243 242 243 243 241 239 239 226 234 236 236 226 206 223 253 267 263 243 246 245 247 242 243 246 251 249 248 246 248 253 257 262 267 270 273 276 277 278 283
245 265 281 284 276 295 247 261 270 286 238 240 239 239 228 241 245 238 252 243 237 219 215 211 215 229 237 250 253 241 239 236 235 237 234 231 227 233 242 248 253 260 265 271 274 279 277 279 281
239 262 276 285 292 224 273 272 261 260 199 234 249 238 223 234 243 262 222 243 219 218 226 217 230 219 241 266 247 246 247 238 230 227 227 229 232 234 243 249 256 264 270 274 280 281 285 283 283
228 238 262 263 308 266 287 259 273 169 303 217 246 269 246 245 244 249 267 250 238 253 244 220 227 239 234 233 245 244 241 231 220 219 220 222 229 239 240 250 262 267 275 280 284 287 288 287 291
245 235 241 263 266 272 290 295 296 333 257 287 55 242 255 252 255 245 242 237 230 222 232 236 232 230 236 240 241 235 230 220 216 218 222 211 219 232 234 239 254 266 277 285 287 289 288 283 282
252 189 225 253 240 240 211 255 272 301 307 315 357 341 317 289 238 242 239 239 239 235 234 230 228 232 234 232 235 226 220 218 222 212 206 209 211 213 221 236 251 270 285 295 302 304 299 294 284
261 247 127 143 198 233 234 233 242 240 226 283 309 315 316 321 303 236 226 235 242 245 234 229 229 228 227 222 217 215 219 218 218 207 202 200 199 216 229 245 260 283 298 304 309 309 311 308 298
203 223 233 216 208 247 152 202 254 232 290 298 316 324 329 331 329 316 261 233 221 226 231 232 228 223 223 217 213 210 214 222 226 202 187 192 205 227 243 252 267 283 293 298 302 303 304 298 289
206 221 240 248 241 240 169 224 212 272 344 16 0 348 357 358 350 338 311 280 249 227 222 223 220 217 213 210 207 204 192 173 170 181 192 213 246 250 261 273 276 281 285 288 292 296 292 287 281
171 215 15 171 82 254 248 242 243 166 98 30 25 22 20 16 18 16 2 322 278 225 210 204 197 188 178 163 156 152 158 170 189 210 231 251 257 261 265 269 271 273 280 288 293 292 290 287 284
243 135 182 208 234 248 206 245 250 193 181 62 46 42 34 36 39 44 43 45 63 138 156 154 148 144 143 146 149 161 182 214 238 250 260 266 271 273 269 270 273 284 290 295 298 295 298 295 292
176 195 67 23 270 258 263 251 177 184 190 141 85 52 34 39 41 45 67 89 99 107 117 122 127 134 149 166 192 225 243 250 248 250 259 269 274 273 269 275 281 283 288 291 293 295 293 291 295
297 81 264 236 222 239 307 256 29 20 148 155 134 86 53 38 38 34 40 84 111 130 141 147 154 171 204 218 230 237 243 247 256 267 275 278 279 273 274 272 278 281 284 289 289 287 290 286 290
Wind_Speed_850mb
28 23 15 10 7 5 8 5 5 8 4 1 21 15 25 23 13 14 17 42 48 62 67 64 61 58 54 50 48 50 50 49 45 40 33 28 26 33 39 39 37 31 26 22 21 21 19 17 16
22 19 7 2 9 16 12 7 11 11 16 27 22 15 9 4 11 18 7 41 58 61 65 65 62 59 55 51 49 49 50 46 43 39 33 29 30 37 39 37 33 28 24 20 19 18 17 14 14
16 17 8 6 9 25 10 13 10 6 23 16 13 17 11 5 10 9 14 46 66 62 61 64 61 58 54 51 51 50 48 45 42 38 34 31 35 40 38 34 30 25 22 19 18 17 15 13 13
15 12 4 13 28 17 17 10 3 19 12 6 10 23 6 10 10 10 24 49 66 64 60 60 58 56 54 52 50 48 47 44 41 38 34 35 39 41 37 33 28 23 20 18 16 15 14 13 12
23 7 11 14 35 23 20 24 12 15 23 23 33 13 17 14 11 14 34 54 69 67 65 61 57 53 52 51 50 48 45 42 40 36 38 41 42 40 36 31 26 22 19 16 15 14 13 11 10
10 4 11 32 41 23 21 34 30 27 30 33 24 23 9 10 10 19 40 51 62 61 64 62 57 52 49 48 49 48 46 42 39 39 41 43 42 38 34 29 25 22 19 17 15 14 12 10 9
11 8 20 26 33 26 28 29 34 25 28 27 23 21 6 12 16 28 47 50 64 63 63 63 58 53 48 44 47 48 45 42 40 43 42 41 39 36 33 29 26 23 21 18 17 15 14 13 12
10 6 11 16 28 38 15 13 14 21 27 17 13 11 13 17 23 35 48 51 66 65 64 64 61 58 53 48 46 47 44 41 42 43 41 39 37 36 34 31 29 26 23 20 18 17 16 15 15
14 11 21 21 22 17 8 18 21 13 17 13 7 24 23 16 29 37 51 54 67 66 67 67 65 63 58 51 47 44 43 41 42 42 41 39 41 40 37 35 31 28 25 22 19 18 18 18 18
15 11 15 8 13 22 19 22 31 21 26 26 24 20 11 18 33 45 52 64 72 70 71 70 68 65 59 55 52 50 47 47 47 46 46 46 44 42 40 37 34 31 27 25 23 22 22 22 21
11 14 11 13 20 22 31 30 27 30 40 47 32 12 8 18 29 44 52 59 69 69 71 73 71 67 64 62 59 56 54 52 50 50 48 48 46 44 42 39 36 34 31 29 27 26 27 27 26
10 18 31 19 33 29 27 34 42 54 58 39 40 39 31 32 39 50 56 62 65 71 73 73 73 70 67 66 64 60 59 55 52 50 48 48 46 44 41 39 38 37 35 33 31 31 30 29 31
17 19 22 38 35 44 48 57 61 70 51 55 54 54 56 52 52 60 50 53 58 64 70 72 73 72 70 67 64 61 60 58 56 54 52 50 47 44 42 41 40 39 38 36 35 34 33 35 35
12 17 28 25 47 46 41 53 61 24 31 51 45 50 53 49 55 59 58 61 58 58 65 69 70 68 66 67 66 63 61 60 58 55 53 51 48 46 43 41 40 40 38 38 38 38 38 40 41
10 14 25 33 45 23 36 44 57 59 47 58 54 53 52 54 49 61 75 70 57 54 60 60 64 65 67 67 66 63 63 60 58 55 54 52 51 48 45 42 40 40 40 40 41 41 43 43 43
4 1 11 14 20 23 27 34 37 49 52 54 51 45 43 53 54 61 67 71 65 66 53 52 58 58 59 62 65 66 63 60 55 53 51 49 49 50 49 45 42 42 41 43 42 42 45 47 46
3 12 19 20 17 5 29 26 42 41 42 47 51 48 42 37 47 54 65 68 68 66 50 45 48 59 60 60 61 64 65 56 54 50 45 37 40 42 46 45 42 42 43 44 44 44 44 46 45
7 10 15 20 10 9 18 36 33 32 23 33 46 50 38 31 32 63 56 64 65 63 62 47 33 41 51 63 61 65 65 60 53 45 39 31 30 33 34 36 36 34 34 36 37 39 42 44 46
21 23 29 42 23 21 24 27 27 20 21 25 31 41 44 41 49 55 62 58 43 62 71 67 65 68 63 40 68 80 76 66 54 41 33 36 28 29 29 34 32 31 32 34 38 41 42 43 47
21 24 33 34 13 14 15 26 17 11 6 11 28 29 49 59 59 49 46 58 51 57 67 78 63 60 63 68 79 78 78 61 49 39 38 38 32 26 28 30 30 31 32 32 35 35 36 40 39
23 29 30 31 24 18 17 19 5 2 8 2 7 23 34 41 65 69 59 57 57 67 64 71 80 67 75 76 72 70 62 54 49 55 50 42 26 29 33 30 31 29 29 31 34 37 39 39 37
25 29 37 32 13 15 2 11 9 7 5 7 4 3 28 53 64 62 71 70 77 88 86 87 72 64 69 70 72 63 61 61 64 62 43 33 36 34 26 23 24 24 24 25 28 31 34 33 37
13 9 16 20 19 11 13 11 6 6 5 6 9 14 19 20 38 56 65 65 71 81 81 70 71 72 65 61 55 54 61 65 50 44 46 46 36 26 21 18 19 19 18 19 22 25 30 33 32
8 10 4 3 7 15 17 14 12 13 6 7 8 23 25 24 22 26 40 45 45 48 57 63 67 63 66 60 59 61 56 52 42 42 46 38 27 22 20 16 14 13 18 23 27 28 28 28 32
9 9 9 10 12 16 7 10 16 4 4 11 20 28 28 28 27 18 25 36 38 42 51 61 62 63 65 58 55 50 43 42 40 34 30 28 23 20 18 16 15 20 23 27 31 33 37 39 37
16 13 13 15 13 11 6 11 4 3 4 7 10 15 19 24 27 29 25 27 34 40 46 52 62 63 59 52 49 43 38 36 32 27 24 17 16 18 19 21 25 28 29 31 34 40 41 43 41
11 14 0 6 3 8 5 6 8 2 2 11 18 20 25 27 29 31 29 19 18 25 36 41 46 49 42 43 44 40 34 27 23 19 19 20 22 22 24 26 28 30 31 36 40 42 40 40 41
7 14 7 5 14 21 9 7 11 8 7 7 13 19 22 23 25 30 33 29 14 13 26 36 41 43 39 33 28 22 17 16 18 21 22 22 21 26 30 32 32 34 36 37 37 34 31 31 35
4 7 5 1 3 11 18 11 4 4 9 11 7 11 15 19 22 23 25 32 33 33 33 30 27 23 19 15 12 13 16 20 22 20 21 23 29 36 37 37 36 36 39 38 38 38 38 38 40
3 2 1 9 10 2 6 8 7 4 10 12 12 8 10 13 17 18 14 14 16 19 21 19 14 11 11 12 16 18 18 17 19 22 28 33 36 39 39 40 44 45 47 48 48 45 46 48 48
Wind_Direction_850mb
251 260 288 327 250 261 234 215 291 225 192 145 307 287 294 276 267 299 326 178 182 175 174 174 175 177 177 175 174 172 170 169 170 174 176 180 170 160 155 153 152 153 152 152 151 149 146 137 134
238 241 254 102 244 236 231 192 207 254 325 319 315 331 290 298 244 283 183 173 175 177 175 176 177 178 179 179 180 177 175 176 177 180 186 184 173 165 161 157 156 157 158 156 155 153 150 145 144
210 205 193 212 227 237 244 193 200 258 316 320 315 329 296 281 288 262 193 171 176 180 178 178 178 178 181 185 184 181 180 181 183 188 190 185 175 167 164 161 161 163 162 160 159 159 157 153 153
172 150 110 230 227 240 232 151 23 312 323 313 314 302 279 289 284 238 190 173 176 181 180 179 181 181 184 188 187 185 185 185 189 193 190 182 174 169 168 167 167 168 167 166 163 166 164 158 153
169 154 212 231 242 248 245 263 284 302 308 301 313 289 281 254 240 221 187 175 179 181 180 182 183 185 187 189 190 189 191 192 194 195 185 177 174 172 172 173 173 173 174 172 175 174 174 171 166
149 147 215 234 235 236 248 265 275 277 287 292 296 288 258 240 217 183 183 180 181 183 182 184 183 187 189 193 195 195 196 198 197 190 183 177 176 176 178 180 180 182 183 183 185 185 186 193 197
183 188 230 250 253 246 241 257 258 269 279 283 289 283 253 228 203 182 178 184 182 185 186 186 184 188 191 199 202 200 200 200 195 187 184 181 183 184 187 189 190 192 193 194 196 196 199 205 214
154 211 216 234 243 263 243 224 262 247 272 263 302 258 257 243 201 182 183 184 184 188 188 189 188 189 192 195 202 203 201 200 194 191 191 191 192 195 199 199 200 202 204 205 208 209 210 216 224
146 221 237 233 226 249 251 272 253 252 268 293 283 304 294 254 192 182 178 183 186 191 193 193 193 194 194 196 198 202 202 199 198 197 199 201 203 205 207 208 209 211 213 215 219 225 229 232 236
196 224 226 222 246 258 268 291 279 279 270 273 279 334 324 192 189 185 183 183 190 195 196 197 197 197 198 200 202 202 202 201 202 203 204 207 210 212 215 215 216 218 222 226 230 234 240 245 249
187 238 207 222 234 254 266 274 264 259 256 252 266 307 279 285 210 195 194 197 196 197 199 200 201 201 202 204 206 207 207 207 208 210 211 214 216 218 220 222 224 227 230 235 240 245 248 252 255
218 223 229 249 242 256 263 275 260 249 251 270 274 283 269 263 250 217 205 203 200 202 201 202 203 205 206 209 210 213 215 215 216 218 218 222 223 226 228 230 234 237 240 244 250 257 265 272 279
227 244 233 242 253 253 259 255 259 259 268 273 275 279 279 280 249 232 221 209 206 207 205 205 207 209 211 214 217 219 221 223 223 223 225 227 228 230 232 235 238 241 247 254 263 270 276 279 279
195 247 261 260 251 246 244 251 251 265 274 272 275 275 274 277 251 227 216 213 210 210 210 208 210 214 217 220 221 224 225 228 230 231 232 234 236 237 239 241 246 252 257 264 267 274 278 282 284
276 299 301 260 253 242 238 260 264 263 262 269 271 269 268 269 253 223 221 216 210 215 210 214 213 213 220 225 227 229 231 233 234 235 238 239 242 244 245 248 252 259 263 267 273 277 281 282 285
340 292 276 268 229 246 190 267 265 253 242 249 259 259 261 267 241 228 223 222 217 217 217 223 223 225 223 228 232 233 235 237 239 240 243 244 247 248 248 251 256 263 268 273 275 277 280 281 282
133 268 242 290 209 133 193 253 253 249 235 241 249 253 253 253 237 231 229 236 228 223 212 221 235 247 237 233 235 241 242 243 243 245 247 248 248 249 249 252 261 266 268 269 271 272 274 277 282
225 249 284 276 1 254 227 254 275 263 243 242 243 243 241 239 239 226 234 236 236 226 206 223 253 267 263 243 246 245 247 242 243 246 251 249 248 246 248 253 257 262 267 270 273 276 277 278 283
245 265 281 284 276 295 247 261 270 286 238 240 239 239 228 241 245 238 252 243 237 219 215 211 215 229 237 250 253 241 239 236 235 237 234 231 227 233 242 248 253 260 265 271 274 279 277 279 281
239 262 276 285 292 224 273 272 261 260 199 234 249 238 223 234 243 262 222 243 219 218 226 217 230 219 241 266 247 246 247 238 230 227 227 229 232 234 243 249 256 264 270 274 280 281 285 283 283
228 238 262 263 308 266 287 259 273 169 303 217 246 269 246 245 244 249 267 250 238 253 244 220 227 239 234 233 245 244 241 231 220 219 220 222 229 239 240 250 262 267 275 280 284 287 288 287 291
245 235 241 263 266 272 290 295 296 333 257 287 55 242 255 252 255 245 242 237 230 222 232 236 232 230 236 240 241 235 230 220 216 218 222 211 219 232 234 239 254 266 277 285 287 289 288 283 282
252 189 225 253 240 240 211 255 272 301 307 315 357 341 317 289 238 242 239 239 239 235 234 230 228 232 234 232 235 226 220 218 222 212 206 209 211 213 221 236 251 270 285 295 302 304 299 294 284
261 247 127 143 198 233 234 233 242 240 226 283 309 315 316 321 303 236 226 235 242 245 234 229 229 228 227 222 217 215 219 218 218 207 202 200 199 216 229 245 260 283 298 304 309 309 311 308 298
203 223 233 216 208 247 152 202 254 232 290 298 316 324 329 331 329 316 261 233 221 226 231 232 228 223 223 217 213 210 214 222 226 202 187 192 205 227 243 252 267 283 293 298 302 303 304 298 289
206 221 240 248 241 240 169 224 212 272 344 16 0 348 357 358 350 338 311 280 249 227 222 223 220 217 213 210 207 204 192 173 170 181 192 213 246 250 261 273 276 281 285 288 292 296 292 287 281
171 215 15 171 82 254 248 242 243 166 98 30 25 22 20 16 18 16 2 322 278 225 210 204 197 188 178 163 156 152 158 170 189 210 231 251 257 261 265 269 271 273 280 288 293 292 290 287 284
243 135 182 208 234 248 206 245 250 193 181 62 46 42 34 36 39 44 43 45 63 138 156 154 148 144 143 146 149 161 182 214 238 250 260 266 271 273 269 270 273 284 290 295 298 295 298 295 292
176 195 67 23 270 258 263 251 177 184 190 141 85 52 34 39 41 45 67 89 99 107 117 122 127 134 149 166 192 225 243 250 248 250 259 269 274 273 269 275 281 283 288 291 293 295 293 291 295
297 81 264 236 222 239 307 256 29 20 148 155 134 86 53 38 38 34 40 84 111 130 141 147 154 171 204 218 230 237 243 247 256 267 275 278 279 273 274 272 278 281 284 289 289 287 290 286 290